Wind_Speed
38 38 35 32 34 35 35 33 31 30 28 28 26 24 24 24 21 25 24 25 26 25 29 26 24 23 22 21 21 23 22 25 23 21 20 21 21 22 22 22 23 25 26 26
40 36 36 38 37 36 36 34 32 32 31 29 27 24 26 25 22 25 27 28 28 28 30 30 29 26 26 25 25 26 27 27 27 25 25 23 25 24 26 26 28 30 31 31
35 36 38 38 37 37 36 35 33 33 32 31 29 27 27 27 27 29 28 28 30 30 32 31 31 30 29 30 30 29 31 32 31 30 29 29 29 30 30 32 33 35 36 37
39 37 38 36 37 37 36 36 35 34 34 33 32 29 25 28 30 29 29 29 30 31 33 33 33 33 33 33 33 33 33 35 36 35 33 33 34 34 36 36 38 40 41 42
40 39 37 38 37 38 37 37 37 37 37 35 32 31 26 28 30 30 30 30 30 30 31 32 34 35 35 35 35 36 36 38 39 39 39 39 40 40 41 41 43 45 46 47
42 40 40 39 39 39 38 39 38 39 38 37 34 32 32 31 31 32 32 31 31 31 32 33 35 36 37 37 37 39 40 40 41 42 43 44 45 46 47 47 48 49 50 50
43 41 40 40 39 40 40 39 39 38 38 38 35 34 36 34 33 34 34 34 34 35 36 36 37 37 38 39 40 41 42 43 44 46 47 49 50 51 53 54 55 55 55 54
43 44 43 41 40 40 41 41 41 40 40 39 38 37 39 39 38 36 35 36 37 37 37 39 40 41 42 43 44 45 46 47 48 50 51 53 54 55 57 58 58 58 58 60
53 47 48 46 47 47 46 45 44 42 43 41 42 43 42 42 42 42 41 40 40 41 42 42 43 43 45 46 47 49 50 51 51 52 53 54 56 57 58 59 60 61 61 61
63 55 53 53 53 53 51 49 47 48 47 46 47 46 48 47 47 48 48 48 46 46 46 47 47 47 47 48 49 50 51 54 55 56 55 55 56 57 58 59 59 58 58 57
61 58 60 59 58 54 53 53 52 52 52 52 52 53 53 52 52 52 52 54 54 52 48 48 48 50 51 51 49 49 51 52 53 55 57 57 56 56 57 57 58 58 57 57
56 60 60 61 60 59 58 56 56 57 56 56 55 56 57 57 56 56 56 54 54 52 52 51 50 51 52 52 54 55 57 56 56 57 58 59 59 59 59 57 55 55 55 56
57 61 62 63 63 62 61 60 59 59 59 59 59 58 59 60 60 56 55 55 54 53 52 51 49 49 50 51 53 54 55 57 58 58 59 58 57 56 57 59 62 64 65 66
53 58 62 63 62 60 61 60 59 58 58 57 57 54 53 53 54 54 55 55 54 53 54 54 55 54 53 52 53 54 55 57 58 59 60 61 62 64 66 68 69 71 73 74
55 53 54 56 57 57 56 55 54 55 52 54 52 53 54 55 57 57 57 59 59 58 57 56 56 56 54 55 58 63 65 66 66 67 68 68 70 72 74 76 77 78 79 80
58 59 61 62 63 61 61 60 60 61 62 64 64 61 60 60 62 62 63 62 61 62 61 59 58 58 59 60 64 67 69 70 71 72 73 74 75 76 77 78 79 81 82 83
54 54 55 61 59 58 59 56 55 54 54 55 55 53 56 57 60 62 64 65 65 63 63 63 64 65 67 70 72 74 73 73 73 74 76 77 79 80 82 83 85 86 87 89
56 53 56 55 57 59 60 61 61 60 60 62 61 60 59 59 59 61 64 66 67 66 67 69 71 74 76 76 79 78 78 79 79 80 81 82 84 86 87 87 87 88 89 88
57 56 54 58 60 61 60 60 63 63 60 55 55 58 60 60 61 64 67 69 69 70 71 74 76 78 80 82 83 83 84 85 86 88 89 91 92 93 95 95 94 92 91 89
63 63 63 58 65 66 60 59 62 62 61 57 54 55 59 62 65 67 68 68 69 71 74 76 78 79 81 83 86 88 89 90 92 93 94 95 95 95 95 96 96 95 94 93
64 64 67 67 66 65 64 65 66 65 61 60 59 60 62 63 64 65 66 67 68 69 71 74 76 78 80 83 86 88 91 92 94 95 97 97 96 97 97 96 94 92 89 87
62 61 67 68 69 69 66 65 64 62 63 65 65 63 62 61 62 63 65 67 69 70 71 73 76 78 80 84 87 89 90 92 93 93 93 93 93 91 89 87 85 84 84 84
59 56 54 55 55 56 61 66 69 70 70 65 62 60 59 58 59 62 64 66 68 70 71 73 75 76 78 81 84 86 87 88 88 88 88 88 87 87 88 86 84 83 82 80
52 53 51 53 57 55 57 59 61 61 60 60 60 62 64 64 63 61 62 64 66 69 72 74 76 78 80 82 84 86 87 87 88 88 87 86 84 83 83 82 81 79 76 74
56 54 54 54 53 54 56 58 59 61 63 64 64 63 61 60 61 62 64 67 70 73 76 79 81 83 85 86 87 86 86 85 84 84 84 83 83 82 81 80 80 77 76 74
57 57 57 56 57 61 63 65 65 64 63 61 59 59 60 62 65 67 69 72 74 77 80 82 84 85 85 84 82 82 84 84 84 84 83 82 81 80 78 77 74 73 71 68
Wind_Direction
214 215 218 221 222 224 227 229 233 239 242 245 246 248 249 249 247 249 248 247 247 251 257 259 258 258 257 254 251 254 256 255 259 259 267 275 281 287 285 287 290 291 288 290
213 214 217 221 223 227 232 234 236 239 241 243 246 247 255 254 247 248 249 249 250 251 254 259 261 260 258 257 254 255 255 258 262 266 267 272 272 277 279 284 284 287 289 291
219 219 221 225 227 231 234 236 236 238 241 245 246 245 249 255 254 251 249 253 254 254 255 255 259 258 257 258 258 256 256 260 263 267 271 273 274 276 280 281 284 287 289 289
220 220 225 227 229 231 233 235 237 238 242 245 248 246 245 250 255 256 257 255 255 253 255 256 257 258 257 256 258 261 261 260 262 264 267 270 272 274 275 278 280 283 286 287
223 224 226 227 231 233 233 235 237 239 241 243 247 251 240 246 251 254 257 260 261 261 260 260 260 261 262 263 261 261 263 265 267 268 269 271 273 273 275 277 279 281 284 286
224 226 228 228 230 233 235 236 238 238 241 244 246 250 250 244 246 252 257 261 262 262 262 262 262 263 265 265 263 262 263 265 266 269 270 270 272 273 275 276 277 278 280 283
228 230 233 232 234 236 237 239 241 242 242 245 246 249 255 253 249 249 251 253 257 260 262 263 263 263 264 265 265 265 265 266 266 267 269 271 272 273 274 275 276 277 280 281
236 237 237 240 240 241 242 243 244 245 245 247 251 252 255 257 258 259 259 259 260 259 259 261 263 264 264 264 265 266 266 267 267 268 269 270 272 274 274 275 277 278 278 279
241 242 241 243 242 242 241 243 246 247 248 249 250 254 257 259 263 266 266 265 263 263 264 262 260 259 261 262 263 263 263 264 265 266 267 268 270 270 273 276 277 278 278 279
236 240 244 247 245 245 245 246 246 248 249 252 254 256 260 263 264 267 270 270 268 266 266 267 266 266 265 265 265 265 266 269 269 269 270 271 272 273 274 275 275 276 278 278
238 238 243 244 248 248 248 249 251 252 252 254 255 256 258 262 265 267 269 271 273 273 271 268 268 269 270 269 267 266 267 269 269 267 272 274 273 273 273 274 276 277 279 280
241 241 242 244 244 245 246 246 248 248 251 253 255 258 261 262 263 265 266 268 270 272 275 275 274 271 270 271 272 274 274 274 273 273 274 275 275 276 278 277 276 277 281 282
238 240 241 243 243 244 246 248 250 252 253 254 255 258 260 264 266 267 269 272 274 275 273 273 274 276 275 274 274 274 274 274 274 274 274 274 274 274 277 281 284 285 284 284
239 240 243 246 250 251 251 252 252 253 254 259 260 261 260 262 264 267 269 270 271 271 269 270 270 272 273 275 275 273 273 273 274 274 275 276 277 279 280 282 283 283 284 284
236 239 243 245 247 249 248 249 249 249 252 253 254 257 259 262 263 262 263 264 265 265 266 266 267 269 272 279 285 288 287 284 281 280 279 279 280 281 282 283 284 285 286 286
244 246 248 251 252 252 252 250 250 251 253 255 256 258 257 258 261 262 263 263 264 266 267 267 268 271 274 278 284 286 285 284 283 284 284 283 283 283 283 284 284 284 285 285
243 246 246 246 247 247 246 248 247 248 250 251 251 255 257 254 255 257 260 262 264 265 267 270 272 274 277 278 282 285 285 285 285 285 285 286 287 288 289 289 290 290 290 291
243 244 242 244 245 243 247 249 252 252 252 252 254 255 255 253 252 254 256 257 259 262 265 268 271 274 276 279 284 286 286 286 286 287 287 287 288 288 288 289 289 289 290 290
237 240 240 239 240 245 247 250 250 251 250 249 251 251 251 252 255 257 259 261 263 266 268 270 274 276 279 281 285 286 286 286 286 286 286 286 287 287 287 287 288 288 288 289
228 232 226 226 232 237 241 244 241 244 247 250 249 250 255 260 264 267 270 273 275 276 276 279 281 282 283 283 283 284 285 285 286 287 287 288 288 289 289 289 290 290 290 290
226 221 224 227 230 229 234 237 239 242 247 249 255 260 265 268 271 273 275 275 277 279 280 280 281 282 284 285 285 286 286 287 287 287 287 288 289 289 289 289 289 290 290 290
246 249 244 243 243 235 239 241 246 250 253 251 256 263 267 270 273 275 277 278 280 281 282 283 283 284 285 286 286 286 286 286 286 287 287 287 287 288 288 288 288 288 287 287
251 253 257 260 264 262 259 259 257 260 264 266 267 268 270 271 273 275 277 279 281 283 284 284 284 284 285 285 286 286 285 285 286 286 286 286 286 287 287 288 287 286 287 288
249 251 252 256 256 260 262 262 263 266 269 271 273 274 274 275 276 278 279 279 279 280 281 282 283 284 285 286 287 288 287 286 286 286 286 286 286 286 287 288 288 289 289 289
242 244 249 249 254 258 261 263 264 265 266 268 270 272 274 274 275 276 278 280 282 284 285 287 287 288 288 289 289 289 288 288 287 287 286 286 286 285 285 287 288 289 289 288
244 249 254 259 260 260 260 261 263 265 266 267 269 272 276 278 280 282 284 285 286 287 288 288 289 290 291 290 291 291 290 290 289 289 288 287 286 286 287 288 287 287 287 286
Height
5781 5787 5794 5799 5802 5805 5808 5812 5816 5819 5823 5826 5828 5831 5833 5835 5839 5840 5841 5843 5844 5846 5844 5847 5849 5852 5853 5853 5853 5854 5854 5853 5854 5854 5855 5855 5855 5854 5853 5851 5851 5849 5848 5847
5777 5782 5786 5790 5795 5800 5804 5808 5812 5814 5817 5820 5823 5827 5828 5830 5833 5833 5834 5835 5839 5840 5840 5842 5845 5847 5847 5847 5848 5849 5849 5849 5849 5850 5849 5850 5850 5849 5848 5847 5846 5844 5842 5841
5772 5778 5781 5786 5790 5795 5799 5803 5805 5808 5811 5814 5817 5822 5822 5824 5825 5826 5829 5831 5833 5834 5834 5836 5837 5839 5840 5841 5841 5842 5843 5844 5844 5844 5844 5844 5843 5843 5842 5840 5839 5837 5836 5834
5763 5769 5774 5779 5785 5788 5792 5796 5799 5802 5806 5809 5812 5815 5818 5817 5817 5821 5823 5824 5825 5827 5827 5829 5831 5832 5832 5833 5834 5835 5836 5836 5837 5836 5837 5836 5835 5835 5833 5832 5831 5829 5827 5826
5763 5766 5770 5775 5780 5782 5786 5789 5792 5795 5798 5801 5806 5808 5812 5811 5812 5814 5815 5817 5819 5821 5822 5823 5824 5825 5827 5828 5829 5830 5830 5829 5829 5829 5830 5829 5828 5827 5826 5825 5823 5820 5819 5817
5751 5756 5762 5767 5771 5774 5778 5782 5784 5787 5791 5795 5799 5800 5803 5804 5806 5809 5810 5810 5812 5814 5815 5816 5817 5818 5819 5820 5821 5821 5821 5821 5820 5820 5820 5820 5818 5817 5816 5815 5813 5810 5808 5806
5746 5750 5756 5760 5763 5767 5772 5776 5778 5781 5784 5787 5791 5793 5793 5795 5799 5802 5803 5804 5804 5806 5807 5808 5810 5811 5811 5811 5812 5812 5813 5812 5812 5810 5809 5809 5808 5807 5805 5803 5801 5800 5797 5795
5738 5744 5749 5754 5757 5761 5764 5769 5772 5772 5775 5780 5781 5784 5786 5786 5790 5794 5795 5796 5797 5799 5801 5801 5801 5802 5802 5802 5802 5803 5802 5802 5801 5800 5799 5798 5796 5794 5793 5790 5789 5787 5785 5783
5729 5733 5739 5743 5747 5750 5756 5760 5764 5765 5768 5771 5773 5775 5777 5779 5782 5784 5787 5788 5790 5791 5791 5792 5792 5792 5792 5792 5791 5790 5790 5789 5789 5788 5787 5786 5785 5783 5781 5778 5776 5774 5771 5769
5718 5721 5727 5731 5736 5740 5747 5751 5752 5755 5759 5761 5765 5767 5767 5771 5773 5774 5774 5776 5778 5779 5781 5781 5781 5782 5782 5781 5781 5781 5780 5779 5778 5777 5776 5774 5773 5771 5768 5765 5763 5760 5758 5755
5706 5712 5718 5721 5727 5734 5738 5741 5744 5748 5751 5752 5755 5757 5759 5762 5763 5764 5764 5764 5763 5765 5768 5769 5770 5770 5770 5769 5769 5768 5767 5767 5766 5764 5763 5760 5759 5757 5755 5753 5750 5747 5745 5742
5696 5699 5704 5711 5716 5719 5724 5729 5732 5732 5740 5742 5744 5748 5747 5749 5751 5751 5752 5753 5753 5754 5755 5756 5757 5757 5757 5757 5756 5755 5754 5753 5752 5750 5748 5747 5745 5742 5740 5738 5737 5735 5732 5729
5685 5685 5690 5695 5702 5706 5710 5717 5721 5724 5726 5731 5733 5739 5736 5737 5738 5739 5740 5741 5742 5743 5743 5743 5742 5742 5743 5744 5743 5742 5741 5740 5738 5737 5735 5733 5731 5729 5727 5724 5720 5717 5715 5713
5670 5675 5678 5685 5694 5698 5701 5707 5711 5712 5714 5722 5724 5726 5728 5728 5728 5727 5728 5728 5729 5730 5730 5730 5730 5729 5729 5729 5729 5728 5727 5726 5724 5722 5720 5718 5716 5713 5711 5709 5706 5703 5699 5697
5659 5665 5669 5674 5678 5682 5688 5693 5697 5699 5706 5704 5716 5713 5716 5715 5714 5716 5716 5716 5716 5717 5718 5718 5717 5716 5716 5715 5713 5710 5709 5709 5709 5708 5705 5704 5701 5698 5695 5691 5688 5685 5681 5678
5648 5653 5659 5661 5665 5669 5673 5680 5685 5688 5691 5692 5698 5703 5702 5700 5700 5700 5701 5702 5703 5703 5703 5704 5704 5703 5702 5702 5701 5698 5695 5692 5690 5688 5685 5683 5682 5679 5675 5672 5669 5665 5662 5658
5637 5641 5645 5648 5653 5657 5658 5668 5671 5675 5678 5682 5685 5692 5688 5688 5689 5689 5689 5689 5689 5690 5690 5689 5688 5687 5686 5686 5684 5680 5677 5675 5672 5670 5666 5663 5661 5658 5654 5650 5646 5642 5638 5633
5623 5628 5631 5635 5639 5641 5650 5654 5659 5662 5665 5667 5672 5675 5673 5674 5675 5676 5677 5676 5676 5677 5676 5676 5674 5671 5668 5667 5665 5662 5658 5655 5652 5650 5647 5643 5640 5638 5634 5629 5624 5620 5616 5611
5613 5617 5620 5621 5626 5631 5638 5643 5645 5645 5652 5655 5659 5658 5659 5660 5660 5661 5661 5662 5662 5661 5661 5659 5657 5654 5650 5648 5645 5642 5638 5634 5632 5629 5625 5620 5616 5614 5611 5606 5601 5596 5593 5588
5599 5604 5606 5606 5611 5617 5630 5631 5632 5634 5639 5645 5644 5643 5644 5645 5645 5647 5645 5646 5645 5644 5643 5642 5640 5636 5632 5628 5626 5622 5617 5613 5610 5606 5602 5596 5591 5588 5585 5580 5576 5571 5565 5563
5587 5590 5593 5595 5597 5606 5615 5617 5617 5619 5634 5628 5628 5628 5629 5630 5632 5631 5629 5628 5628 5627 5625 5623 5621 5618 5613 5608 5606 5601 5596 5591 5589 5584 5579 5574 5568 5564 5559 5556 5551 5546 5541 5536
5574 5575 5579 5583 5585 5596 5602 5603 5607 5609 5608 5611 5613 5617 5618 5617 5616 5615 5613 5610 5609 5608 5606 5604 5602 5599 5592 5586 5583 5579 5574 5570 5566 5561 5556 5550 5544 5539 5534 5530 5527 5521 5517 5515
5560 5562 5566 5571 5573 5581 5581 5584 5586 5588 5591 5594 5598 5599 5601 5601 5601 5599 5597 5595 5592 5589 5587 5583 5580 5579 5574 5567 5560 5557 5551 5547 5543 5538 5533 5527 5524 5517 5510 5506 5503 5499 5493 5488
5546 5551 5555 5559 5563 5566 5567 5567 5569 5571 5573 5578 5581 5582 5583 5584 5584 5584 5581 5578 5575 5571 5567 5564 5560 5558 5556 5548 5541 5532 5527 5523 5520 5516 5511 5505 5500 5496 5488 5480 5476 5474 5470 5467
5534 5540 5544 5546 5551 5553 5554 5554 5556 5558 5559 5561 5563 5565 5565 5566 5566 5566 5564 5559 5555 5551 5546 5541 5538 5535 5530 5523 5518 5510 5502 5499 5497 5492 5487 5481 5475 5471 5466 5460 5454 5451 5448 5444
5526 5531 5533 5537 5538 5535 5536 5537 5540 5543 5544 5545 5546 5547 5547 5547 5546 5544 5541 5538 5535 5530 5525 5520 5515 5510 5505 5500 5495 5487 5480 5476 5471 5468 5463 5458 5452 5447 5443 5437 5436 5428 5427 5423